Weather Roundup
Issued by NWS Springfield, MO

Home | Current Version | Previous Version | Text Only | Print | Product List | Glossary On
Versions: 1 2 3 4 5 6 7 8 9 10 11 12 13 14 15 16 17 18 19 20 21 22 23 24 25 26 27 28 29 30 31 32 33 34 35 36 37 38 39 40 41 42 43 44 45 46 47 48 49 50
000
NZUS99 KSGF 010859
HRRSGF

HOURLY WEATHER
NATIONAL WEATHER SERVICE SPRINGFIELD MO
400 AM CDT WED OCT 01 2014

......SGF CWA......

CITY           SKY/WX    TMP DP  RH WIND       PRES   REMARKS
SPRINGFIELD    MOCLDY    66  56  70 S10       29.84F
JOPLIN         PTCLDY    70  59  68 SE9       29.80F
WEST PLAINS    CLEAR     61  53  75 CALM      29.90F
ROLLA          CLEAR     64  52  64 SE10      29.86S
OSAGE BEACH    CLEAR     63  52  67 S5        29.85S

......SURROUNDING SGF CWA......

CITY           SKY/WX    TMP DP  RH WIND       PRES   REMARKS
CHANUTE        PTCLDY    69  61  75 SE14      29.75F
PARSONS        CLEAR     70  62  76 S8        29.77F
COFFEYVILLE    CLEAR     69  61  75 SE10      29.75F
EMPORIA        MOCLDY    68  63  84 S16       29.72F
SILOAM SPRINGS CLEAR     66  55  68 SE7       29.84F
HARRISON AR    CLEAR     61  59  93 SE7       29.88F
NEAR YELLVILLE CLEAR     57  52  82 CALM      29.87F

......KANSAS AND MISSOURI......

CITY           SKY/WX    TMP DP  RH WIND       PRES   REMARKS
KANSAS CTY INT CLOUDY    70  60  70 S16       29.73F
DOWNTOWN KC    MOCLDY    71  59  65 S14G21    29.73F
COLUMBIA       CLEAR     62  55  77 SE8       29.85F
SEDALIA        CLOUDY    66  55  67 S9        29.82F
ST JOSEPH      TSTM      66  64  93 NW12      29.77R FOG
ST LOUIS       CLEAR     64  59  83 E8        29.90S
SPIRIT OF STL  CLEAR    N/A N/A N/A E3        29.87F
KIRKSVILLE     CLEAR     60 N/A N/A E6        29.84F
WICHITA        MOCLDY    72  65  78 S12       29.72S
TOPEKA         CLOUDY    72  64  76 SW7G18    29.73R
OLATHE         MOCLDY    66  60  81 S15       29.74F

......TENNESSEE......

CITY           SKY/WX    TMP DP  RH WIND       PRES   REMARKS
MEMPHIS        PTCLDY    72  60  66 SE5       29.89S
NASHVILLE      CLEAR     59  55  87 CALM      29.93S

......ARKANSAS.......

CITY           SKY/WX    TMP DP  RH WIND       PRES   REMARKS
FAYETTEVILLE   CLEAR     60  59  96 CALM      29.85S
FT SMITH       CLEAR     67  63  87 E8        29.82F
LITTLE ROCK    PTCLDY    67  62  84 CALM      29.86S

......OKLAHOMA.......

CITY           SKY/WX    TMP DP  RH WIND       PRES   REMARKS
TULSA          PTCLDY    73  63  70 S16G23    29.75F
PONCA CITY     PTCLDY    73  65  75 S13G22    29.72S
MCALESTER      CLEAR     74  65  73 S8        29.79F
OKLAHOMA CITY  MOCLDY    72  66  81 S14       29.73F

......IOWA............

CITY           SKY/WX    TMP DP  RH WIND       PRES   REMARKS
DES MOINES     RAIN      62  59  90 E8        29.81F FOG

......ILLINOIS........

CITY           SKY/WX    TMP DP  RH WIND       PRES   REMARKS
QUINCY         CLEAR     57  53  86 SE12      29.88S
CHICAGO        CLOUDY    54  46  74 SE6       30.00S




USA.gov is the U.S. government's official web portal to all federal, state and local government web resources and services.